Location: Bucharest
(44.4268°N, 26.1025°E)
Time: 19:17:16
(UTC+03:00)

BEESAT 2 - Pass Details

Date: 30 June 2022
Orbit: 480 x 508 km, 64.9° (Epoch: 16 August)

Event Time Altitude Azimuth Distance (km) Brightness Sun altitude
Rises 21:58:26 0° 312° (NW) 2,628 ? -8.3°
Reaches altitude 10° 22:01:00 10° 295° (WNW) 1,738 ? -8.7°
Maximum altitude 22:03:55 20° 247° (WSW) 1,212 ? -9.0°
Drops below altitude 10° 22:06:49 10° 198° (SSW) 1,727 ? -9.4°
Enters shadow 22:08:35 - 185° (S) 2,317 ? -9.6°
